Location: Waco, TX
(31.5480°N, 97.1670°W)
Time: 15:46:30
(UTC-05:00)

ISS - Pass Details

Date: 18 September 2019
Orbit: 411 x 421 km, 51.6° (Epoch: 17 September)

Event Time Altitude Azimuth Distance (km) Brightness Sun altitude
Rises 05:26:51 0° 306° (NW) 2,347 - -23.3°
Reaches altitude 10° 05:29:03 10° 297° (WNW) 1,483 - -22.9°
Maximum altitude 05:32:06 34° 230° (SW) 700 - -22.3°
Drops below altitude 10° 05:35:10 10° 163° (SSE) 1,481 - -21.6°
Exits shadow 05:35:37 - 160° (SSE) 1,653 -0.7 -21.5°
Sets 05:37:21 0° 154° (SSE) 2,341 0.2 -21.2°
